Meriden, CT

11:02 AM EDT on May 25, 2017 (GMT -0400)
Meriden Markham Municipal

Weather History for KMMK - December, 2012

Change the Weather History Date:

Saturday, December 29, 2012

  Actual Average (KOXC) Record (KOXC)
Temperature  
Mean Temperature 26 °F -  
Max Temperature 32 °F 34 °F 57 °F (2015)
Min Temperature 21 °F 21 °F 10 °F (2000)
Degree Days  
Heating Degree Days 38    
Moisture  
Dew Point 25 °F    
Average Humidity 86    
Maximum Humidity 93    
Minimum Humidity 72    
Precipitation  
Precipitation 0.18 in - - ()
Sea Level Pressure  
Sea Level Pressure 29.68 in    
Wind  
Wind Speed 4 mph (North)    
Max Wind Speed 12 mph    
Max Gust Speed 17 mph    
Visibility 4 miles    
Events Fog , Snow    
Averages and records for this station are not official NWS values.
T = Trace of Precipitation, MM = Missing Value Source: NWS Daily Summary

Daily Weather History Graph

Daily Weather History Graph

Search for Another Location

Airport or City:

Trip Planner

Search our weather history database for the weather conditions in past years. The results will help you decide how hot, cold, wet, or windy it might be!

Date:

Astronomy

Dec. 29, 2012 Rise Set
Actual Time 7:17 AM EST 4:29 PM EST
Civil Twilight 6:46 AM EST 5:01 PM EST
Nautical Twilight 6:11 AM EST 5:36 PM EST
Astronomical Twilight 5:37 AM EST 6:09 PM EST
Moon 6:01 PM EST (12/29) 7:48 AM EST (12/29)
Length of Visible Light 10h 15m
Length of Day
9h 12m
Full, 98% of the Moon is Illuminated
Dec 29
Full
Jan 4
Last Quarter
Jan 11
New
Jan 18
First Quarter
Jan 26
Full

Hourly Weather History & Observations

Time (EST) Temp. Windchill Dew Point Humidity Pressure Visibility Wind Dir Wind Speed Gust Speed Precip Events Conditions
12:53 AM 21.9 °F - 19.0 °F 89% 30.04 in 8.0 mi Calm Calm - N/A   Clear
1:53 AM 21.0 °F - 18.0 °F 88% 30.04 in 8.0 mi Calm Calm - N/A   Clear
2:53 AM 21.9 °F - 19.9 °F 92% 30.03 in 8.0 mi Calm Calm - N/A   Clear
3:53 AM 23.0 °F - 21.0 °F 92% 30.03 in 9.0 mi Calm Calm - N/A   Clear
4:53 AM 25.0 °F - 21.9 °F 88% 30.01 in 10.0 mi Calm Calm - N/A   Partly Cloudy
5:53 AM 26.1 °F - 23.0 °F 88% 29.99 in 10.0 mi Calm Calm - N/A   Overcast
7:53 AM 28.0 °F - 24.1 °F 85% 29.96 in 10.0 mi Calm Calm - N/A   Overcast
8:53 AM 28.9 °F 23.9 °F 23.0 °F 78% 29.94 in 10.0 mi NNE 4.6 mph - N/A   Overcast
9:53 AM 28.9 °F 22.8 °F 23.0 °F 78% 29.92 in 10.0 mi North 5.8 mph - N/A   Overcast
10:15 AM 30.2 °F 26.7 °F 23.0 °F 75% 29.90 in 10.0 mi North 3.5 mph - N/A   Overcast
10:26 AM 30.2 °F 25.4 °F 23.0 °F 75% 29.89 in 10.0 mi North 4.6 mph - N/A   Overcast
10:53 AM 30.0 °F 25.2 °F 23.0 °F 75% 29.88 in 10.0 mi North 4.6 mph - N/A   Overcast
11:53 AM 30.9 °F 25.2 °F 23.0 °F 72% 29.80 in 10.0 mi Variable 5.8 mph - N/A   Overcast
12:53 PM 30.9 °F 25.2 °F 23.0 °F 72% 29.74 in 10.0 mi NNE 5.8 mph - N/A   Overcast
1:17 PM 30.2 °F 22.6 °F 24.8 °F 80% 29.70 in 1.8 mi North 8.1 mph - 0.00 in Snow Light Snow
1:21 PM 30.2 °F 21.3 °F 24.8 °F 80% 29.70 in 0.8 mi North 10.4 mph - 0.00 in Snow Light Snow
1:51 PM 28.4 °F 24.6 °F 26.6 °F 93% 29.68 in 0.5 mi Variable 3.5 mph - 0.02 in Fog , Snow Snow
1:53 PM 28.9 °F 23.9 °F 27.0 °F 92% 29.69 in 0.5 mi Variable 4.6 mph - 0.02 in Fog , Snow Snow
2:17 PM 28.4 °F 21.2 °F 26.6 °F 93% 29.67 in 0.8 mi North 6.9 mph - 0.01 in Snow Light Snow
2:34 PM 30.2 °F 26.7 °F 26.6 °F 86% 29.66 in 1.0 mi NNE 3.5 mph - 0.02 in Snow Light Snow
2:41 PM 30.2 °F 24.3 °F 26.6 °F 86% 29.66 in 0.8 mi NNE 5.8 mph - 0.02 in Snow Light Snow
2:53 PM 30.0 °F 22.4 °F 27.0 °F 88% 29.66 in 0.8 mi North 8.1 mph - 0.03 in Snow Light Snow
3:01 PM 30.2 °F 24.3 °F 26.6 °F 86% 29.66 in 1.2 mi North 5.8 mph - 0.00 in Snow Light Snow
3:17 PM 30.2 °F 22.6 °F 26.6 °F 86% 29.64 in 1.5 mi North 8.1 mph - 0.00 in Snow Light Snow
3:37 PM 30.2 °F 22.6 °F 26.6 °F 86% 29.61 in 0.8 mi North 8.1 mph - 0.01 in Snow Light Snow
3:53 PM 30.0 °F 23.2 °F 27.0 °F 88% 29.60 in 0.5 mi North 6.9 mph - 0.02 in Fog , Snow Snow
4:13 PM 30.2 °F 23.4 °F 26.6 °F 86% 29.59 in 0.5 mi North 6.9 mph - 0.01 in Fog , Snow Snow
4:53 PM 30.0 °F 23.2 °F 27.0 °F 88% 29.56 in 0.8 mi North 6.9 mph - 0.04 in Snow Light Snow
5:09 PM 30.2 °F 22.6 °F 26.6 °F 86% 29.55 in 0.5 mi North 8.1 mph - 0.02 in Fog , Snow Snow
5:20 PM 30.2 °F 22.6 °F 26.6 °F 86% 29.54 in 0.8 mi North 8.1 mph - 0.03 in Snow Light Snow
6:01 PM 28.4 °F 19.1 °F 26.6 °F 93% 29.52 in 0.5 mi North 10.4 mph - 0.00 in Fog , Snow Snow
6:53 PM 28.9 °F 19.8 °F 27.0 °F 92% 29.50 in 0.8 mi North 10.4 mph - 0.04 in Snow Light Snow
7:09 PM 28.4 °F 19.7 °F 26.6 °F 93% 29.49 in 1.0 mi North 9.2 mph 17.3 mph 0.02 in Snow Light Snow
7:27 PM 30.2 °F 20.8 °F 26.6 °F 86% 29.48 in 1.5 mi North 11.5 mph - 0.02 in Snow Light Snow
7:51 PM 28.4 °F 19.7 °F 26.6 °F 93% 29.47 in 2.5 mi NW 9.2 mph - 0.02 in Snow Light Snow
7:53 PM 28.9 °F 20.4 °F 26.1 °F 89% 29.47 in 2.5 mi NW 9.2 mph - 0.02 in Snow Light Snow
8:45 PM 30.2 °F 21.9 °F 26.6 °F 86% 29.47 in 1.5 mi NNW 9.2 mph - 0.01 in Snow Light Snow
8:53 PM 30.0 °F 21.7 °F 27.0 °F 88% 29.47 in 1.5 mi North 9.2 mph - 0.01 in Snow Light Snow
9:18 PM 30.2 °F 22.6 °F 28.4 °F 93% 29.47 in 2.0 mi NW 8.1 mph - 0.00 in Snow Light Snow
9:53 PM 30.9 °F 22.8 °F 28.0 °F 89% 29.48 in 3.0 mi NW 9.2 mph - 0.00 in Snow Light Snow
10:28 PM 32.0 °F 27.5 °F 28.4 °F 87% 29.50 in 6.0 mi NNW 4.6 mph - 0.00 in Snow Light Snow
10:45 PM 32.0 °F 26.4 °F 28.4 °F 87% 29.50 in 2.0 mi NNW 5.8 mph - 0.00 in Snow Light Snow
10:53 PM 32.0 °F 28.7 °F 28.9 °F 88% 29.51 in 2.0 mi NNW 3.5 mph - 0.00 in Snow Light Snow
11:51 PM 32.0 °F 28.7 °F 28.4 °F 87% 29.51 in 4.0 mi NW 3.5 mph - 0.00 in Snow Light Snow
11:53 PM 32.0 °F 28.7 °F 28.9 °F 88% 29.52 in 4.0 mi NW 3.5 mph - 0.00 in Snow Light Snow